Time,TemperatureF,DewpointF,PressureIn,WindDirection,WindDirectionDegrees,WindSpeedMPH,WindSpeedGustMPH,Humidity,HourlyPrecipIn,Conditions,Clouds,dailyrainin,SoftwareType,DateUTC
2013-08-20 00:01:00,64.2,63.3,30.15,NNE,27,0.0,0.0,97,0.00,,,0.00,meteohub,2013-08-20 04:01:00,
2013-08-20 00:02:00,64.2,63.3,30.15,NNE,27,0.0,0.0,97,0.00,,,0.00,meteohub,2013-08-20 04:02:00,
2013-08-20 00:07:00,64.2,63.3,30.15,NNE,27,0.0,0.0,97,0.00,,,0.00,meteohub,2013-08-20 04:07:00,
2013-08-20 00:12:00,64.2,63.3,30.15,NNE,27,0.0,0.0,97,0.00,,,0.00,meteohub,2013-08-20 04:12:00,
2013-08-20 00:18:00,64.2,63.3,30.15,NNE,27,0.0,0.0,97,0.00,,,0.00,meteohub,2013-08-20 04:18:00,
2013-08-20 00:23:00,64.2,63.3,30.15,NNE,27,0.0,0.0,97,0.00,,,0.00,meteohub,2013-08-20 04:23:00,
2013-08-20 00:28:00,64.2,63.3,30.14,NNE,26,0.0,0.0,97,0.00,,,0.00,meteohub,2013-08-20 04:28:00,
2013-08-20 00:33:00,64.2,63.3,30.15,NNE,26,0.0,0.0,97,0.00,,,0.00,meteohub,2013-08-20 04:33:00,
2013-08-20 00:38:00,64.2,63.3,30.15,NNE,26,0.0,0.0,97,0.00,,,0.00,meteohub,2013-08-20 04:38:00,
2013-08-20 00:43:00,64.2,63.3,30.15,NNE,26,0.0,0.0,97,0.00,,,0.00,meteohub,2013-08-20 04:43:00,
2013-08-20 00:48:00,64.2,63.3,30.15,NNE,26,0.0,0.0,97,0.00,,,0.00,meteohub,2013-08-20 04:48:00,
2013-08-20 00:53:00,64.2,63.3,30.15,NNE,25,0.0,0.0,97,0.00,,,0.00,meteohub,2013-08-20 04:53:00,
2013-08-20 00:58:00,64.2,63.3,30.15,NNE,26,0.0,0.0,97,0.00,,,0.00,meteohub,2013-08-20 04:58:00,
2013-08-20 01:03:00,64.0,63.1,30.15,NNE,26,0.0,0.0,97,0.00,,,0.00,meteohub,2013-08-20 05:03:00,
2013-08-20 01:08:00,64.0,63.1,30.15,NNE,26,0.0,0.0,97,0.00,,,0.00,meteohub,2013-08-20 05:08:00,
2013-08-20 01:13:00,63.9,63.0,30.15,NNE,26,0.0,0.0,97,0.00,,,0.00,meteohub,2013-08-20 05:13:00,
2013-08-20 01:18:00,63.9,63.0,30.14,NNE,26,0.0,0.0,97,0.00,,,0.00,meteohub,2013-08-20 05:18:00,
2013-08-20 01:23:00,63.7,62.8,30.14,NNE,26,0.0,0.0,97,0.00,,,0.00,meteohub,2013-08-20 05:23:00,
2013-08-20 01:28:00,63.7,62.8,30.14,NNE,26,0.0,0.0,97,0.00,,,0.00,meteohub,2013-08-20 05:28:00,
2013-08-20 01:33:00,63.5,62.6,30.14,NNE,25,0.0,0.0,97,0.00,,,0.00,meteohub,2013-08-20 05:33:00,
2013-08-20 01:38:00,63.5,62.6,30.14,NNE,26,0.0,0.0,97,0.00,,,0.00,meteohub,2013-08-20 05:38:00,
2013-08-20 01:43:00,63.3,62.4,30.14,NNE,26,0.0,0.0,97,0.00,,,0.00,meteohub,2013-08-20 05:43:00,
2013-08-20 01:48:00,63.3,62.4,30.14,North,6,0.0,0.0,97,0.00,,,0.00,meteohub,2013-08-20 05:48:00,
2013-08-20 01:53:00,63.3,62.4,30.13,North,6,0.0,0.0,97,0.00,,,0.00,meteohub,2013-08-20 05:53:00,
2013-08-20 01:58:00,63.3,62.4,30.13,North,6,0.0,0.0,97,0.00,,,0.00,meteohub,2013-08-20 05:58:00,
2013-08-20 02:03:00,63.3,62.4,30.13,North,6,0.0,0.0,97,0.00,,,0.00,meteohub,2013-08-20 06:03:00,
2013-08-20 02:08:00,63.3,62.4,30.13,North,6,0.0,0.0,97,0.00,,,0.00,meteohub,2013-08-20 06:08:00,
2013-08-20 02:13:00,63.3,62.4,30.13,North,6,0.0,0.0,97,0.00,,,0.00,meteohub,2013-08-20 06:13:00,
2013-08-20 02:18:00,63.3,62.8,30.13,ESE,103,0.0,0.0,98,0.00,,,0.00,meteohub,2013-08-20 06:18:00,
2013-08-20 02:23:00,63.3,62.8,30.13,ESE,103,0.0,0.0,98,0.00,,,0.00,meteohub,2013-08-20 06:23:00,
2013-08-20 02:28:00,63.3,62.8,30.13,ESE,103,0.0,0.0,98,0.00,,,0.00,meteohub,2013-08-20 06:28:00,
2013-08-20 02:33:00,63.3,62.8,30.12,East,101,0.0,0.0,98,0.00,,,0.00,meteohub,2013-08-20 06:33:00,
2013-08-20 02:38:00,63.3,62.4,30.12,ESE,102,0.0,0.0,97,0.00,,,0.00,meteohub,2013-08-20 06:38:00,
2013-08-20 02:43:00,63.1,62.2,30.12,ESE,102,0.0,0.0,97,0.00,,,0.00,meteohub,2013-08-20 06:43:00,
2013-08-20 02:48:00,63.1,62.6,30.12,ESE,102,0.0,0.0,98,0.00,,,0.00,meteohub,2013-08-20 06:48:00,
2013-08-20 02:53:00,63.1,62.6,30.12,ESE,102,0.0,0.0,98,0.00,,,0.00,meteohub,2013-08-20 06:53:00,
2013-08-20 02:58:00,63.1,62.6,30.12,East,101,0.0,0.0,98,0.00,,,0.00,meteohub,2013-08-20 06:58:00,
2013-08-20 03:03:00,63.1,62.6,30.12,ESE,102,0.0,0.0,98,0.00,,,0.00,meteohub,2013-08-20 07:03:00,
2013-08-20 03:08:00,63.1,62.6,30.12,East,101,0.0,0.0,98,0.00,,,0.00,meteohub,2013-08-20 07:08:00,
2013-08-20 03:13:00,63.0,62.4,30.12,ESE,102,0.0,0.0,98,0.00,,,0.00,meteohub,2013-08-20 07:13:00,
2013-08-20 03:18:00,63.0,62.4,30.12,ESE,102,0.0,0.0,98,0.00,,,0.00,meteohub,2013-08-20 07:18:00,
2013-08-20 03:23:00,62.8,62.2,30.12,ESE,102,0.0,0.0,98,0.00,,,0.00,meteohub,2013-08-20 07:23:00,
2013-08-20 03:28:00,62.8,62.2,30.12,ESE,102,0.0,0.0,98,0.00,,,0.00,meteohub,2013-08-20 07:28:00,
2013-08-20 03:33:00,62.8,62.2,30.12,East,101,0.0,0.0,98,0.00,,,0.00,meteohub,2013-08-20 07:33:00,
2013-08-20 03:38:00,62.6,62.1,30.12,ESE,102,0.0,0.0,98,0.00,,,0.00,meteohub,2013-08-20 07:38:00,
2013-08-20 03:43:00,62.6,62.1,30.12,ESE,102,0.0,0.0,98,0.00,,,0.00,meteohub,2013-08-20 07:43:00,
2013-08-20 03:48:00,62.4,61.9,30.12,ESE,102,0.0,0.0,98,0.00,,,0.00,meteohub,2013-08-20 07:48:00,
2013-08-20 03:53:00,62.2,61.3,30.12,East,101,0.0,0.0,97,0.00,,,0.00,meteohub,2013-08-20 07:53:00,
2013-08-20 03:58:00,62.1,61.2,30.11,East,101,0.0,0.0,97,0.00,,,0.00,meteohub,2013-08-20 07:58:00,
2013-08-20 04:03:00,62.1,61.5,30.11,ESE,102,0.0,0.0,98,0.00,,,0.00,meteohub,2013-08-20 08:03:00,
2013-08-20 04:08:00,61.9,61.3,30.11,SSE,150,0.0,0.0,98,0.00,,,0.00,meteohub,2013-08-20 08:08:00,
2013-08-20 04:13:00,61.9,61.3,30.11,SSE,150,0.0,0.0,98,0.00,,,0.00,meteohub,2013-08-20 08:13:00,
2013-08-20 04:18:00,61.5,61.0,30.11,SSE,149,0.0,0.0,98,0.00,,,0.00,meteohub,2013-08-20 08:18:00,
2013-08-20 04:23:00,61.3,60.8,30.11,SSE,150,0.0,0.0,98,0.00,,,0.00,meteohub,2013-08-20 08:23:00,
2013-08-20 04:28:00,61.2,60.6,30.11,SSE,150,0.0,0.0,98,0.00,,,0.00,meteohub,2013-08-20 08:28:00,
2013-08-20 04:33:00,61.0,60.4,30.12,SSE,150,0.0,0.0,98,0.00,,,0.00,meteohub,2013-08-20 08:33:00,
2013-08-20 04:38:00,60.8,60.3,30.12,SSE,150,0.0,0.0,98,0.00,,,0.00,meteohub,2013-08-20 08:38:00,
2013-08-20 04:43:00,60.6,60.1,30.12,SSE,150,0.0,0.0,98,0.00,,,0.00,meteohub,2013-08-20 08:43:00,
2013-08-20 04:48:00,60.6,60.1,30.12,SSE,150,0.0,0.0,98,0.00,,,0.00,meteohub,2013-08-20 08:48:00,
2013-08-20 04:53:00,60.6,60.1,30.12,SSE,150,0.0,0.0,98,0.00,,,0.00,meteohub,2013-08-20 08:53:00,
2013-08-20 04:58:00,60.4,59.9,30.12,SSE,150,0.0,0.0,98,0.00,,,0.00,meteohub,2013-08-20 08:58:00,
2013-08-20 05:03:00,60.3,59.7,30.12,SSE,151,0.0,0.0,98,0.00,,,0.00,meteohub,2013-08-20 09:03:00,
2013-08-20 05:08:00,60.3,59.7,30.12,SSE,150,0.0,0.0,98,0.00,,,0.00,meteohub,2013-08-20 09:08:00,
2013-08-20 05:13:00,60.1,59.5,30.12,SSE,150,0.0,0.0,98,0.00,,,0.00,meteohub,2013-08-20 09:13:00,
2013-08-20 05:18:00,60.1,59.5,30.12,SSE,151,0.0,0.0,98,0.00,,,0.00,meteohub,2013-08-20 09:18:00,
2013-08-20 05:23:00,59.9,59.4,30.12,SSE,150,0.0,0.0,98,0.00,,,0.00,meteohub,2013-08-20 09:23:00,
2013-08-20 05:28:00,59.7,59.2,30.12,SSE,150,0.0,0.0,98,0.00,,,0.00,meteohub,2013-08-20 09:28:00,
2013-08-20 05:33:00,59.5,59.0,30.12,SSE,150,0.0,0.0,98,0.00,,,0.00,meteohub,2013-08-20 09:33:00,
2013-08-20 05:38:00,59.5,59.0,30.12,SSE,150,0.0,0.0,98,0.00,,,0.00,meteohub,2013-08-20 09:38:00,
2013-08-20 05:43:00,59.5,59.0,30.12,SSE,150,0.0,0.0,98,0.00,,,0.00,meteohub,2013-08-20 09:43:00,
2013-08-20 05:48:00,59.5,59.0,30.12,SSE,149,0.0,0.0,98,0.00,,,0.00,meteohub,2013-08-20 09:48:00,
2013-08-20 05:53:00,59.7,59.2,30.13,SSE,150,0.0,0.0,98,0.00,,,0.00,meteohub,2013-08-20 09:53:00,
2013-08-20 05:59:00,59.7,59.2,30.13,SSE,149,0.0,0.0,98,0.00,,,0.00,meteohub,2013-08-20 09:59:00,
2013-08-20 06:04:00,59.7,59.2,30.12,SSE,149,0.0,0.0,98,0.00,,,0.00,meteohub,2013-08-20 10:04:00,
2013-08-20 06:09:00,59.7,59.2,30.13,SSE,150,0.0,0.0,98,0.00,,,0.00,meteohub,2013-08-20 10:09:00,
2013-08-20 06:14:00,59.9,59.4,30.13,SSE,150,0.0,0.0,98,0.00,,,0.00,meteohub,2013-08-20 10:14:00,
2013-08-20 06:19:00,60.1,59.5,30.13,SSE,150,0.0,0.0,98,0.00,,,0.00,meteohub,2013-08-20 10:19:00,
2013-08-20 06:24:00,60.1,59.5,30.13,SSE,149,0.0,0.0,98,0.00,,,0.00,meteohub,2013-08-20 10:24:00,
2013-08-20 06:29:00,60.3,59.7,30.13,SSE,149,0.0,0.0,98,0.00,,,0.00,meteohub,2013-08-20 10:29:00,
2013-08-20 06:34:00,60.4,59.9,30.13,SSE,150,0.0,0.0,98,0.00,,,0.00,meteohub,2013-08-20 10:34:00,
2013-08-20 06:39:00,60.4,59.9,30.13,SSE,150,0.0,0.0,98,0.00,,,0.00,meteohub,2013-08-20 10:39:00,
2013-08-20 06:44:00,60.6,60.1,30.13,SSE,150,0.0,0.0,98,0.00,,,0.00,meteohub,2013-08-20 10:44:00,
2013-08-20 06:49:00,60.6,60.1,30.13,SSE,149,0.0,0.0,98,0.00,,,0.00,meteohub,2013-08-20 10:49:00,
2013-08-20 06:54:00,60.6,60.1,30.14,SSE,150,0.0,0.0,98,0.00,,,0.00,meteohub,2013-08-20 10:54:00,
2013-08-20 06:59:00,60.8,60.3,30.14,SSE,149,0.0,0.0,98,0.00,,,0.00,meteohub,2013-08-20 10:59:00,
2013-08-20 07:04:00,60.8,60.3,30.14,SSE,150,0.0,0.0,98,0.00,,,0.00,meteohub,2013-08-20 11:04:00,
2013-08-20 07:09:00,60.8,60.3,30.14,SSE,149,0.0,0.0,98,0.00,,,0.00,meteohub,2013-08-20 11:09:00,
2013-08-20 07:14:00,61.0,60.4,30.14,SSE,150,0.0,0.0,98,0.00,,,0.00,meteohub,2013-08-20 11:14:00,
2013-08-20 07:19:00,61.0,60.4,30.14,SSE,150,0.0,0.0,98,0.00,,,0.00,meteohub,2013-08-20 11:19:00,
2013-08-20 07:24:00,61.2,60.6,30.14,SSE,150,0.0,0.0,98,0.00,,,0.00,meteohub,2013-08-20 11:24:00,
2013-08-20 07:29:00,61.3,60.8,30.14,SSE,149,0.0,0.0,98,0.00,,,0.00,meteohub,2013-08-20 11:29:00,
2013-08-20 07:34:00,61.3,60.8,30.14,SSE,149,0.0,0.0,98,0.00,,,0.00,meteohub,2013-08-20 11:34:00,
2013-08-20 07:39:00,61.5,61.0,30.14,SSE,150,0.0,0.0,98,0.00,,,0.00,meteohub,2013-08-20 11:39:00,
2013-08-20 07:44:00,61.7,61.2,30.14,SSE,149,0.0,0.0,98,0.00,,,0.00,meteohub,2013-08-20 11:44:00,
2013-08-20 07:49:00,61.9,61.3,30.15,SSE,150,0.0,0.0,98,0.00,,,0.00,meteohub,2013-08-20 11:49:00,
2013-08-20 07:54:00,62.1,61.5,30.15,SSE,149,0.0,0.0,98,0.00,,,0.00,meteohub,2013-08-20 11:54:00,
2013-08-20 07:59:00,62.1,61.5,30.15,SSE,149,0.0,0.0,98,0.00,,,0.00,meteohub,2013-08-20 11:59:00,
2013-08-20 08:04:00,62.2,61.7,30.15,SSE,149,0.0,0.0,98,0.00,,,0.00,meteohub,2013-08-20 12:04:00,
2013-08-20 08:09:00,62.4,61.9,30.15,SSE,149,0.0,0.0,98,0.00,,,0.00,meteohub,2013-08-20 12:09:00,
2013-08-20 08:14:00,62.6,62.1,30.15,SSE,149,0.0,0.0,98,0.00,,,0.00,meteohub,2013-08-20 12:14:00,
2013-08-20 08:19:00,62.8,62.2,30.15,SSE,149,0.0,0.0,98,0.00,,,0.00,meteohub,2013-08-20 12:19:00,
2013-08-20 08:24:00,62.8,62.2,30.15,NE,49,0.0,0.0,98,0.00,,,0.00,meteohub,2013-08-20 12:24:00,
2013-08-20 08:29:00,62.8,62.2,30.15,NE,46,0.0,1.0,98,0.00,,,0.00,meteohub,2013-08-20 12:29:00,
2013-08-20 08:34:00,62.8,62.2,30.15,NE,46,0.0,1.0,98,0.00,,,0.00,meteohub,2013-08-20 12:34:00,
2013-08-20 08:39:00,62.8,62.2,30.16,NE,46,0.0,1.0,98,0.00,,,0.00,meteohub,2013-08-20 12:39:00,
2013-08-20 08:44:00,63.0,62.4,30.16,NE,46,0.0,0.0,98,0.00,,,0.00,meteohub,2013-08-20 12:44:00,
2013-08-20 08:49:00,63.1,62.6,30.16,NE,46,0.0,0.0,98,0.00,,,0.00,meteohub,2013-08-20 12:49:00,
2013-08-20 08:54:00,63.1,62.6,30.16,NE,46,0.0,0.0,98,0.00,,,0.00,meteohub,2013-08-20 12:54:00,
2013-08-20 08:59:00,63.3,62.8,30.17,NE,47,0.0,0.0,98,0.00,,,0.00,meteohub,2013-08-20 12:59:00,
2013-08-20 09:04:00,63.5,63.0,30.17,NE,46,0.0,0.0,98,0.00,,,0.00,meteohub,2013-08-20 13:04:00,
2013-08-20 09:09:00,63.5,63.0,30.17,NE,47,0.0,0.0,98,0.00,,,0.00,meteohub,2013-08-20 13:09:00,
2013-08-20 09:14:00,63.7,63.1,30.17,NNE,30,0.0,0.0,98,0.00,,,0.00,meteohub,2013-08-20 13:14:00,
2013-08-20 09:19:00,63.7,63.1,30.17,NNE,12,0.0,0.0,98,0.00,,,0.00,meteohub,2013-08-20 13:19:00,
2013-08-20 09:24:00,63.7,63.1,30.17,NNE,16,0.0,2.0,98,0.00,,,0.00,meteohub,2013-08-20 13:24:00,
2013-08-20 09:29:00,63.7,63.1,30.17,NNE,16,0.0,2.0,98,0.00,,,0.00,meteohub,2013-08-20 13:29:00,
2013-08-20 09:34:00,63.7,63.1,30.17,NNE,16,0.0,2.0,98,0.00,,,0.00,meteohub,2013-08-20 13:34:00,
2013-08-20 09:39:00,63.9,63.3,30.17,NNE,16,0.0,1.0,98,0.00,,,0.00,meteohub,2013-08-20 13:39:00,
2013-08-20 09:44:00,64.0,63.5,30.17,NNE,16,0.0,1.0,98,0.00,,,0.00,meteohub,2013-08-20 13:44:00,
2013-08-20 09:49:00,64.0,63.5,30.17,NNE,16,1.0,1.0,98,0.00,,,0.00,meteohub,2013-08-20 13:49:00,
2013-08-20 09:54:00,64.0,63.5,30.18,NE,36,1.0,1.0,98,0.00,,,0.00,meteohub,2013-08-20 13:54:00,
2013-08-20 09:59:00,64.2,63.7,30.18,NNE,25,0.0,2.0,98,0.00,,,0.00,meteohub,2013-08-20 13:59:00,
2013-08-20 10:04:00,64.4,63.5,30.18,NNE,33,0.0,2.0,97,0.00,,,0.00,meteohub,2013-08-20 14:04:00,
2013-08-20 10:09:00,64.2,63.3,30.18,NNE,25,1.0,2.0,97,0.00,,,0.00,meteohub,2013-08-20 14:09:00,
2013-08-20 10:14:00,64.6,63.7,30.18,North,356,2.0,3.0,97,0.00,,,0.00,meteohub,2013-08-20 14:14:00,
2013-08-20 10:19:00,64.6,63.7,30.19,NNE,30,0.0,3.0,97,0.00,,,0.00,meteohub,2013-08-20 14:19:00,
2013-08-20 10:24:00,64.8,63.7,30.19,NNE,30,0.0,3.0,96,0.00,,,0.00,meteohub,2013-08-20 14:24:00,
2013-08-20 10:29:00,64.8,63.7,30.19,NNE,30,0.0,3.0,96,0.00,,,0.00,meteohub,2013-08-20 14:29:00,
2013-08-20 10:34:00,64.9,63.9,30.19,NNE,30,0.0,2.0,96,0.00,,,0.00,meteohub,2013-08-20 14:34:00,
2013-08-20 10:39:00,64.9,63.9,30.19,NNE,30,0.0,0.0,96,0.00,,,0.00,meteohub,2013-08-20 14:39:00,
2013-08-20 10:44:00,64.9,63.5,30.19,North,4,2.0,2.0,95,0.00,,,0.00,meteohub,2013-08-20 14:44:00,
2013-08-20 10:49:00,64.9,63.5,30.19,NNE,18,0.0,4.0,95,0.00,,,0.00,meteohub,2013-08-20 14:49:00,
2013-08-20 10:54:00,64.9,63.5,30.20,NNE,33,0.0,4.0,95,0.00,,,0.00,meteohub,2013-08-20 14:54:00,
2013-08-20 10:59:00,65.1,63.7,30.20,NNE,18,0.0,4.0,95,0.00,,,0.00,meteohub,2013-08-20 14:59:00,
2013-08-20 11:04:00,65.1,63.7,30.20,North,0,0.0,3.0,95,0.00,,,0.00,meteohub,2013-08-20 15:04:00,
2013-08-20 11:09:00,65.1,63.7,30.20,NNE,26,0.0,2.0,95,0.00,,,0.00,meteohub,2013-08-20 15:09:00,
2013-08-20 11:14:00,65.3,63.9,30.20,NNE,26,0.0,2.0,95,0.00,,,0.00,meteohub,2013-08-20 15:14:00,
2013-08-20 11:20:00,65.5,64.0,30.20,NNE,15,0.0,2.0,95,0.00,,,0.00,meteohub,2013-08-20 15:20:00,
2013-08-20 11:25:00,65.7,63.9,30.20,NNW,328,0.0,3.0,94,0.00,,,0.00,meteohub,2013-08-20 15:25:00,
2013-08-20 11:30:00,65.8,64.0,30.20,NE,41,2.0,4.0,94,0.00,,,0.00,meteohub,2013-08-20 15:30:00,
2013-08-20 11:35:00,66.0,64.2,30.20,NNE,26,2.0,5.0,94,0.00,,,0.00,meteohub,2013-08-20 15:35:00,
2013-08-20 11:40:00,66.4,64.6,30.20,NNE,24,1.0,5.0,94,0.00,,,0.00,meteohub,2013-08-20 15:40:00,
2013-08-20 11:45:00,66.6,64.4,30.20,NNW,328,0.0,5.0,93,0.00,,,0.00,meteohub,2013-08-20 15:45:00,
2013-08-20 11:50:00,66.9,64.6,30.20,NNW,342,0.0,5.0,92,0.00,,,0.00,meteohub,2013-08-20 15:50:00,
2013-08-20 11:55:00,67.5,65.1,30.20,NE,36,1.0,5.0,92,0.00,,,0.00,meteohub,2013-08-20 15:55:00,
2013-08-20 12:00:00,67.8,65.1,30.20,NNE,23,3.0,5.0,91,0.00,,,0.00,meteohub,2013-08-20 16:00:00,
2013-08-20 12:05:00,68.2,65.1,30.20,NNE,18,0.0,4.0,90,0.00,,,0.00,meteohub,2013-08-20 16:05:00,
2013-08-20 12:10:00,68.4,65.7,30.19,NNE,33,0.0,4.0,91,0.00,,,0.00,meteohub,2013-08-20 16:10:00,
2013-08-20 12:15:00,68.7,65.3,30.19,East,88,0.0,4.0,89,0.00,,,0.00,meteohub,2013-08-20 16:15:00,
2013-08-20 12:20:00,69.3,65.5,30.19,NNE,20,0.0,3.0,88,0.00,,,0.00,meteohub,2013-08-20 16:20:00,
2013-08-20 12:25:00,69.8,66.0,30.19,NNE,26,4.0,4.0,88,0.00,,,0.00,meteohub,2013-08-20 16:25:00,
2013-08-20 12:30:00,70.0,66.0,30.19,NNW,343,0.0,2.0,87,0.00,,,0.00,meteohub,2013-08-20 16:30:00,
2013-08-20 12:35:00,70.2,65.8,30.19,NE,37,0.0,4.0,86,0.00,,,0.00,meteohub,2013-08-20 16:35:00,
2013-08-20 12:40:00,70.2,65.8,30.20,NNE,13,0.0,4.0,86,0.00,,,0.00,meteohub,2013-08-20 16:40:00,
2013-08-20 12:45:00,70.2,66.0,30.19,North,354,0.0,5.0,87,0.00,,,0.00,meteohub,2013-08-20 16:45:00,
2013-08-20 12:50:00,70.0,65.3,30.19,NNE,33,2.0,5.0,85,0.00,,,0.00,meteohub,2013-08-20 16:50:00,
2013-08-20 12:55:00,69.6,65.7,30.19,ENE,77,0.0,5.0,87,0.00,,,0.00,meteohub,2013-08-20 16:55:00,
2013-08-20 13:00:00,70.0,66.0,30.19,NE,40,1.0,5.0,87,0.00,,,0.00,meteohub,2013-08-20 17:00:00,
2013-08-20 13:05:00,70.0,66.0,30.19,North,11,0.0,5.0,87,0.00,,,0.00,meteohub,2013-08-20 17:05:00,
2013-08-20 13:10:00,70.0,66.0,30.19,NNE,20,2.0,2.0,87,0.00,,,0.00,meteohub,2013-08-20 17:10:00,
2013-08-20 13:15:00,70.2,65.8,30.19,NNE,20,3.0,3.0,86,0.00,,,0.00,meteohub,2013-08-20 17:15:00,
2013-08-20 13:20:00,70.2,65.8,30.19,NNE,20,0.0,3.0,86,0.00,,,0.00,meteohub,2013-08-20 17:20:00,
2013-08-20 13:25:00,70.3,66.0,30.19,NNE,27,3.0,3.0,86,0.00,,,0.00,meteohub,2013-08-20 17:25:00,
2013-08-20 13:30:00,70.5,66.4,30.19,NE,41,0.0,3.0,87,0.00,,,0.00,meteohub,2013-08-20 17:30:00,
2013-08-20 13:35:00,70.7,66.0,30.19,NE,45,2.0,4.0,85,0.00,,,0.00,meteohub,2013-08-20 17:35:00,
2013-08-20 13:40:00,70.9,66.7,30.19,NNE,26,0.0,4.0,87,0.00,,,0.00,meteohub,2013-08-20 17:40:00,
2013-08-20 13:45:00,71.1,66.4,30.19,NNE,23,0.0,5.0,85,0.00,,,0.00,meteohub,2013-08-20 17:45:00,
2013-08-20 13:50:00,71.2,66.9,30.19,North,356,0.0,5.0,86,0.00,,,0.00,meteohub,2013-08-20 17:50:00,
2013-08-20 13:55:00,71.6,66.9,30.19,NNE,20,2.0,5.0,85,0.00,,,0.00,meteohub,2013-08-20 17:55:00,
2013-08-20 14:00:00,71.6,66.9,30.18,NE,39,0.0,5.0,85,0.00,,,0.00,meteohub,2013-08-20 18:00:00,
2013-08-20 14:05:00,71.8,66.7,30.18,NE,54,0.0,5.0,84,0.00,,,0.00,meteohub,2013-08-20 18:05:00,
2013-08-20 14:10:00,72.0,67.3,30.18,NE,36,0.0,3.0,85,0.00,,,0.00,meteohub,2013-08-20 18:10:00,
2013-08-20 14:15:00,72.5,67.1,30.18,SSW,201,0.0,1.0,83,0.00,,,0.00,meteohub,2013-08-20 18:15:00,
2013-08-20 14:20:00,73.0,67.3,30.18,ESE,103,1.0,1.0,82,0.00,,,0.00,meteohub,2013-08-20 18:20:00,
2013-08-20 14:25:00,73.2,67.1,30.18,SSW,200,0.0,2.0,81,0.00,,,0.00,meteohub,2013-08-20 18:25:00,
2013-08-20 14:30:00,73.4,67.3,30.17,ENE,77,0.0,2.0,81,0.00,,,0.00,meteohub,2013-08-20 18:30:00,
2013-08-20 14:35:00,73.6,67.8,30.17,NE,54,0.0,2.0,82,0.00,,,0.00,meteohub,2013-08-20 18:35:00,
2013-08-20 14:40:00,73.0,67.3,30.17,NW,326,0.0,2.0,82,0.00,,,0.00,meteohub,2013-08-20 18:40:00,
2013-08-20 14:45:00,72.9,68.0,30.17,NW,315,0.0,2.0,85,0.00,,,0.00,meteohub,2013-08-20 18:45:00,
2013-08-20 14:50:00,72.5,67.8,30.17,SSW,213,1.0,2.0,85,0.00,,,0.00,meteohub,2013-08-20 18:50:00,
2013-08-20 14:55:00,72.7,67.3,30.16,NW,315,0.0,2.0,83,0.00,,,0.00,meteohub,2013-08-20 18:55:00,
2013-08-20 15:00:00,73.0,67.6,30.16,NW,315,0.0,2.0,83,0.00,,,0.00,meteohub,2013-08-20 19:00:00,
2013-08-20 15:05:00,73.2,67.5,30.16,NE,50,0.0,2.0,82,0.00,,,0.00,meteohub,2013-08-20 19:05:00,
2013-08-20 15:10:00,73.6,67.5,30.15,South,191,2.0,4.0,81,0.00,,,0.00,meteohub,2013-08-20 19:10:00,
2013-08-20 15:15:00,73.8,67.6,30.15,NNW,334,0.0,4.0,81,0.00,,,0.00,meteohub,2013-08-20 19:15:00,
2013-08-20 15:20:00,73.8,67.6,30.15,West,273,0.0,4.0,81,0.00,,,0.00,meteohub,2013-08-20 19:20:00,
2013-08-20 15:25:00,73.9,68.4,30.15,SW,232,3.0,4.0,83,0.00,,,0.00,meteohub,2013-08-20 19:25:00,
2013-08-20 15:30:00,73.4,67.6,30.15,SW,230,0.0,5.0,82,0.00,,,0.00,meteohub,2013-08-20 19:30:00,
2013-08-20 15:35:00,73.6,67.8,30.14,SW,224,1.0,5.0,82,0.00,,,0.00,meteohub,2013-08-20 19:35:00,
2013-08-20 15:40:00,73.6,67.5,30.14,SSE,156,0.0,5.0,81,0.00,,,0.00,meteohub,2013-08-20 19:40:00,
2013-08-20 15:45:00,73.8,68.0,30.14,NNW,333,0.0,5.0,82,0.00,,,0.00,meteohub,2013-08-20 19:45:00,
2013-08-20 15:50:00,73.8,68.0,30.13,WNW,300,0.0,5.0,82,0.00,,,0.00,meteohub,2013-08-20 19:50:00,
2013-08-20 15:55:00,73.4,67.6,30.13,WSW,238,0.0,5.0,82,0.00,,,0.00,meteohub,2013-08-20 19:55:00,
2013-08-20 16:00:00,73.2,67.8,30.13,NNW,335,0.0,5.0,83,0.00,,,0.00,meteohub,2013-08-20 20:00:00,
2013-08-20 16:05:00,73.2,67.8,30.13,NNW,338,2.0,4.0,83,0.00,,,0.00,meteohub,2013-08-20 20:05:00,
2013-08-20 16:10:00,73.2,67.1,30.13,WSW,257,1.0,4.0,81,0.00,,,0.00,meteohub,2013-08-20 20:10:00,
2013-08-20 16:15:00,73.2,67.8,30.13,NW,307,0.0,7.0,83,0.00,,,0.00,meteohub,2013-08-20 20:15:00,
2013-08-20 16:20:00,73.6,67.8,30.13,SSW,193,2.0,7.0,82,0.00,,,0.00,meteohub,2013-08-20 20:20:00,
2013-08-20 16:25:00,73.4,67.6,30.13,SSE,156,1.0,5.0,82,0.00,,,0.00,meteohub,2013-08-20 20:25:00,
2013-08-20 16:30:00,73.2,67.8,30.13,NE,35,0.0,5.0,83,0.00,,,0.00,meteohub,2013-08-20 20:30:00,
2013-08-20 16:35:00,73.0,67.6,30.13,SSW,201,0.0,5.0,83,0.00,,,0.00,meteohub,2013-08-20 20:35:00,
2013-08-20 16:40:00,72.9,67.8,30.13,WSW,252,0.0,6.0,84,0.00,,,0.00,meteohub,2013-08-20 20:40:00,
2013-08-20 16:45:00,72.7,67.6,30.13,SSW,202,0.0,6.0,84,0.00,,,0.00,meteohub,2013-08-20 20:45:00,
2013-08-20 16:50:00,72.7,67.6,30.12,WSW,238,1.0,6.0,84,0.00,,,0.00,meteohub,2013-08-20 20:50:00,
2013-08-20 16:55:00,72.7,67.6,30.13,ENE,77,0.0,4.0,84,0.00,,,0.00,meteohub,2013-08-20 20:55:00,
2013-08-20 17:00:00,72.5,67.8,30.13,NW,320,0.0,4.0,85,0.00,,,0.00,meteohub,2013-08-20 21:00:00,
2013-08-20 17:06:00,72.5,67.5,30.13,NE,45,0.0,3.0,84,0.00,,,0.00,meteohub,2013-08-20 21:06:00,
2013-08-20 17:11:00,72.7,67.6,30.13,NW,318,0.0,3.0,84,0.00,,,0.00,meteohub,2013-08-20 21:11:00,
2013-08-20 17:16:00,72.9,67.5,30.13,South,190,0.0,3.0,83,0.00,,,0.00,meteohub,2013-08-20 21:16:00,
2013-08-20 17:21:00,72.9,67.8,30.13,SW,236,2.0,4.0,84,0.00,,,0.00,meteohub,2013-08-20 21:21:00,
2013-08-20 17:26:00,72.9,67.5,30.13,SSW,212,0.0,4.0,83,0.00,,,0.00,meteohub,2013-08-20 21:26:00,
2013-08-20 17:31:00,72.7,67.6,30.13,NW,309,0.0,3.0,84,0.00,,,0.00,meteohub,2013-08-20 21:31:00,
2013-08-20 17:36:00,72.3,67.6,30.13,West,274,0.0,3.0,85,0.00,,,0.00,meteohub,2013-08-20 21:36:00,
2013-08-20 17:41:00,72.1,67.5,30.13,WSW,245,4.0,4.0,85,0.00,,,0.00,meteohub,2013-08-20 21:41:00,
2013-08-20 17:46:00,72.1,67.6,30.13,North,6,0.0,5.0,86,0.00,,,0.00,meteohub,2013-08-20 21:46:00,
2013-08-20 17:51:00,72.0,67.5,30.13,SSW,198,2.0,5.0,86,0.00,,,0.00,meteohub,2013-08-20 21:51:00,
2013-08-20 17:56:00,71.8,67.3,30.14,SW,222,1.0,5.0,86,0.00,,,0.00,meteohub,2013-08-20 21:56:00,
2013-08-20 18:01:00,71.8,67.3,30.13,North,6,0.0,5.0,86,0.00,,,0.00,meteohub,2013-08-20 22:01:00,
2013-08-20 18:06:00,71.8,67.3,30.13,SW,232,0.0,3.0,86,0.00,,,0.00,meteohub,2013-08-20 22:06:00,
2013-08-20 18:11:00,71.8,67.3,30.13,WSW,253,0.0,3.0,86,0.00,,,0.00,meteohub,2013-08-20 22:11:00,
2013-08-20 18:16:00,71.4,67.3,30.13,West,264,0.0,3.0,87,0.00,,,0.00,meteohub,2013-08-20 22:16:00,
2013-08-20 18:21:00,71.4,67.1,30.13,SE,124,0.0,2.0,86,0.00,,,0.00,meteohub,2013-08-20 22:21:00,
2013-08-20 18:26:00,71.4,67.1,30.13,SSW,193,0.0,0.0,86,0.00,,,0.00,meteohub,2013-08-20 22:26:00,
2013-08-20 18:31:00,71.6,67.5,30.13,WSW,239,0.0,1.0,87,0.00,,,0.00,meteohub,2013-08-20 22:31:00,
2013-08-20 18:36:00,71.8,67.3,30.13,SW,224,0.0,2.0,86,0.00,,,0.00,meteohub,2013-08-20 22:36:00,
2013-08-20 18:41:00,71.8,67.3,30.13,South,184,0.0,2.0,86,0.00,,,0.00,meteohub,2013-08-20 22:41:00,
2013-08-20 18:46:00,71.8,67.1,30.13,South,179,0.0,1.0,85,0.00,,,0.00,meteohub,2013-08-20 22:46:00,
2013-08-20 18:51:00,71.8,67.1,30.14,South,181,0.0,1.0,85,0.00,,,0.00,meteohub,2013-08-20 22:51:00,
2013-08-20 18:56:00,72.0,67.3,30.14,SSE,152,0.0,1.0,85,0.00,,,0.00,meteohub,2013-08-20 22:56:00,
2013-08-20 19:01:00,71.6,67.1,30.14,East,90,0.0,2.0,86,0.00,,,0.00,meteohub,2013-08-20 23:01:00,
2013-08-20 19:06:00,71.2,66.6,30.14,East,90,0.0,2.0,85,0.00,,,0.00,meteohub,2013-08-20 23:06:00,
2013-08-20 19:11:00,70.9,66.6,30.14,North,5,0.0,1.0,86,0.00,,,0.00,meteohub,2013-08-20 23:11:00,
2013-08-20 19:16:00,70.5,66.4,30.14,NNW,332,0.0,0.0,87,0.00,,,0.00,meteohub,2013-08-20 23:16:00,
2013-08-20 19:21:00,70.3,66.6,30.14,NNW,332,0.0,0.0,88,0.00,,,0.00,meteohub,2013-08-20 23:21:00,
2013-08-20 19:26:00,70.0,66.2,30.14,SW,236,0.0,1.0,88,0.00,,,0.00,meteohub,2013-08-20 23:26:00,
2013-08-20 19:31:00,69.4,66.0,30.14,SW,236,0.0,1.0,89,0.00,,,0.00,meteohub,2013-08-20 23:31:00,
2013-08-20 19:36:00,69.3,65.8,30.15,SW,236,0.0,1.0,89,0.00,,,0.00,meteohub,2013-08-20 23:36:00,
2013-08-20 19:41:00,68.9,65.8,30.15,SW,236,0.0,1.0,90,0.00,,,0.00,meteohub,2013-08-20 23:41:00,
2013-08-20 19:46:00,68.5,65.8,30.16,SW,236,0.0,0.0,91,0.00,,,0.00,meteohub,2013-08-20 23:46:00,
2013-08-20 19:51:00,68.4,65.7,30.16,SW,236,0.0,0.0,91,0.00,,,0.00,meteohub,2013-08-20 23:51:00,
2013-08-20 19:56:00,68.2,65.8,30.16,SW,236,0.0,0.0,92,0.00,,,0.00,meteohub,2013-08-20 23:56:00,
2013-08-20 20:01:00,67.8,65.5,30.16,SW,236,0.0,0.0,92,0.00,,,0.00,meteohub,2013-08-21 00:01:00,
2013-08-20 20:06:00,67.6,65.5,30.16,SW,236,0.0,0.0,93,0.00,,,0.00,meteohub,2013-08-21 00:06:00,
2013-08-20 20:11:00,67.5,65.3,30.16,SW,236,0.0,0.0,93,0.00,,,0.00,meteohub,2013-08-21 00:11:00,
2013-08-20 20:16:00,67.3,65.5,30.16,SW,236,0.0,0.0,94,0.00,,,0.00,meteohub,2013-08-21 00:16:00,
2013-08-20 20:21:00,66.9,65.1,30.16,WSW,237,0.0,1.0,94,0.00,,,0.00,meteohub,2013-08-21 00:21:00,
2013-08-20 20:26:00,66.7,64.9,30.16,SW,236,0.0,1.0,94,0.00,,,0.00,meteohub,2013-08-21 00:26:00,
2013-08-20 20:31:00,66.6,65.1,30.16,SW,236,0.0,1.0,95,0.00,,,0.00,meteohub,2013-08-21 00:31:00,
2013-08-20 20:36:00,66.6,65.1,30.17,SW,236,0.0,0.0,95,0.00,,,0.00,meteohub,2013-08-21 00:36:00,
2013-08-20 20:41:00,66.4,64.9,30.17,SW,236,0.0,0.0,95,0.00,,,0.00,meteohub,2013-08-21 00:41:00,
2013-08-20 20:46:00,66.2,64.8,30.17,WSW,237,0.0,0.0,95,0.00,,,0.00,meteohub,2013-08-21 00:46:00,
2013-08-20 20:51:00,66.0,64.8,30.17,SW,236,0.0,0.0,96,0.00,,,0.00,meteohub,2013-08-21 00:51:00,
2013-08-20 20:56:00,66.2,64.9,30.17,SW,236,0.0,0.0,96,0.00,,,0.00,meteohub,2013-08-21 00:56:00,
2013-08-20 21:01:00,66.2,64.9,30.17,SW,236,0.0,0.0,96,0.00,,,0.00,meteohub,2013-08-21 01:01:00,
2013-08-20 21:06:00,66.2,64.9,30.17,WSW,237,0.0,0.0,96,0.00,,,0.00,meteohub,2013-08-21 01:06:00,
2013-08-20 21:11:00,66.0,64.8,30.16,SW,236,0.0,0.0,96,0.00,,,0.00,meteohub,2013-08-21 01:11:00,
2013-08-20 21:16:00,66.0,64.8,30.17,SW,236,0.0,0.0,96,0.00,,,0.00,meteohub,2013-08-21 01:16:00,
2013-08-20 21:19:00,65.8,64.6,30.17,SW,236,0.0,0.0,96,0.00,,,0.00,meteohub,2013-08-21 01:19:00,
2013-08-20 21:24:00,65.7,64.4,30.17,SW,236,0.0,0.0,96,0.00,,,0.00,meteohub,2013-08-21 01:24:00,
2013-08-20 21:29:00,65.7,64.4,30.17,SW,236,0.0,0.0,96,0.00,,,0.00,meteohub,2013-08-21 01:29:00,
2013-08-20 21:34:00,65.7,64.8,30.17,SW,236,0.0,0.0,97,0.00,,,0.00,meteohub,2013-08-21 01:34:00,
2013-08-20 21:39:00,65.7,64.8,30.17,WSW,237,0.0,0.0,97,0.00,,,0.00,meteohub,2013-08-21 01:39:00,
2013-08-20 21:44:00,65.7,64.8,30.17,SW,236,0.0,0.0,97,0.00,,,0.00,meteohub,2013-08-21 01:44:00,
2013-08-20 21:49:00,65.8,64.9,30.18,SW,236,0.0,0.0,97,0.00,,,0.00,meteohub,2013-08-21 01:49:00,
2013-08-20 21:55:00,65.8,64.9,30.17,WSW,237,0.0,0.0,97,0.00,,,0.00,meteohub,2013-08-21 01:55:00,
2013-08-20 22:00:00,65.8,64.9,30.17,SW,236,0.0,0.0,97,0.00,,,0.00,meteohub,2013-08-21 02:00:00,
2013-08-20 22:05:00,65.8,64.9,30.18,SW,236,0.0,0.0,97,0.00,,,0.00,meteohub,2013-08-21 02:05:00,
2013-08-20 22:10:00,65.8,64.9,30.18,WSW,237,0.0,0.0,97,0.00,,,0.00,meteohub,2013-08-21 02:10:00,
2013-08-20 22:15:00,65.8,64.9,30.18,SW,236,0.0,0.0,97,0.00,,,0.00,meteohub,2013-08-21 02:15:00,
2013-08-20 22:20:00,65.7,64.8,30.18,SW,236,0.0,0.0,97,0.00,,,0.00,meteohub,2013-08-21 02:20:00,
2013-08-20 22:25:00,65.7,64.8,30.18,WSW,237,0.0,0.0,97,0.00,,,0.00,meteohub,2013-08-21 02:25:00,
2013-08-20 22:30:00,65.5,64.6,30.18,SW,236,0.0,0.0,97,0.00,,,0.00,meteohub,2013-08-21 02:30:00,
2013-08-20 22:35:00,65.5,64.6,30.19,SW,236,0.0,0.0,97,0.00,,,0.00,meteohub,2013-08-21 02:35:00,
2013-08-20 22:40:00,65.1,64.2,30.19,NNW,340,0.0,0.0,97,0.00,,,0.00,meteohub,2013-08-21 02:40:00,
2013-08-20 22:45:00,65.1,64.2,30.19,NNW,340,0.0,0.0,97,0.00,,,0.00,meteohub,2013-08-21 02:45:00,
2013-08-20 22:50:00,65.1,64.2,30.19,NNW,340,0.0,0.0,97,0.00,,,0.00,meteohub,2013-08-21 02:50:00,
2013-08-20 22:55:00,65.1,64.2,30.19,NNW,340,0.0,0.0,97,0.00,,,0.00,meteohub,2013-08-21 02:55:00,
2013-08-20 23:00:00,64.9,64.0,30.19,NNW,339,0.0,0.0,97,0.00,,,0.00,meteohub,2013-08-21 03:00:00,
2013-08-20 23:05:00,64.9,64.0,30.19,NNW,338,0.0,0.0,97,0.00,,,0.00,meteohub,2013-08-21 03:05:00,
2013-08-20 23:10:00,64.8,63.9,30.19,NNW,338,0.0,0.0,97,0.00,,,0.00,meteohub,2013-08-21 03:10:00,
2013-08-20 23:15:00,64.8,63.9,30.19,NNW,338,0.0,0.0,97,0.00,,,0.00,meteohub,2013-08-21 03:15:00,
2013-08-20 23:20:00,64.8,63.9,30.20,NNW,338,0.0,0.0,97,0.00,,,0.00,meteohub,2013-08-21 03:20:00,
2013-08-20 23:25:00,64.8,63.9,30.19,NNW,339,0.0,0.0,97,0.00,,,0.00,meteohub,2013-08-21 03:25:00,
2013-08-20 23:30:00,64.6,63.7,30.20,NNW,338,0.0,0.0,97,0.00,,,0.00,meteohub,2013-08-21 03:30:00,
2013-08-20 23:35:00,64.6,63.7,30.20,NNW,338,0.0,0.0,97,0.00,,,0.00,meteohub,2013-08-21 03:35:00,
2013-08-20 23:40:00,64.6,63.7,30.20,NNW,339,0.0,0.0,97,0.00,,,0.00,meteohub,2013-08-21 03:40:00,
2013-08-20 23:45:00,64.8,64.2,30.20,WNW,294,0.0,0.0,98,0.00,,,0.00,meteohub,2013-08-21 03:45:00,
2013-08-20 23:50:00,64.6,64.0,30.20,WNW,293,0.0,1.0,98,0.00,,,0.00,meteohub,2013-08-21 03:50:00,
2013-08-20 23:55:00,64.6,64.0,30.21,WNW,293,0.0,1.0,98,0.00,,,0.00,meteohub,2013-08-21 03:55:00,